Regional Weather Roundup
Issued by NWS

Home | Current Version | Previous Version | Graphics & Text | Print | Product List | Glossary On
Versions: 1 2 3 4 5 6 7 8 9 10 11 12 13 14 15 16 17 18 19 20 21 22 23 24 25 26 27 28 29 30 31 32 33 34 35 36 37 38 39 40 41 42 43 44 45 46 47 48 49 50
000
ASUS45 KSLC 010410
RWRUT

UTAH REGIONAL WEATHER ROUNDUP
NATIONAL WEATHER SERVICE SALT LAKE CITY UT
1000 PM MDT THU JUL 31 2014

UTZ001>011-023>025-010500-

NORTHERN UTAH

CITY           SKY/WX    TMP DP  RH WIND       PRES   REMARKS
HILL AFB       CLEAR     75  52  44 SE1       30.16R
LOGAN          CLEAR     72  49  44 SE5       30.14R
OGDEN          PTCLDY    76  51  41 SE3       30.14R
PROVO AIRPORT  PTCLDY    73  54  49 CALM      30.15S
SALT LAKE CITY MOCLDY    76  55  48 N5        30.11S
VERNAL         MOCLDY    73  43  33 NW7       30.16R
WENDOVER       CLOUDY    75  45  33 SW9       30.14R
HEBER CITY     PTCLDY    61  54  77 CALM      30.21R
WEST JORDAN    CLEAR     73  57  56 CALM      30.15R

$$

UTZ012>022-026-027-010500-

SOUTHERN UTAH

CITY           SKY/WX    TMP DP  RH WIND       PRES   REMARKS
BRYCE CANYON   CLOUDY    61  52  72 W12       30.38R THUNDER
CEDAR CITY     LGT RAIN  65  57  75 CALM      30.28R
MILFORD        MOCLDY    67  54  63 N7        30.18R
MOAB/CYNLANDS  NOT AVBL
PRICE          MOCLDY    67  51  56 NW3       30.23R
ST GEORGE      PTCLDY    90  50  25 NE29G35   29.97R
KANAB            N/A     81  45  28 E5        30.18R

$$

REGIONAL REPORTS     COLORADO/ARIZONA

CITY           SKY/WX    TMP DP  RH WIND       PRES   REMARKS
CRAIG, CO      MOCLDY    58  54  86 CALM      30.23R
GRAND JUNCTION MOCLDY    74  54  49 NE3       30.10R
RIFLE          CLOUDY    71  48  43 SE14      30.17R
MONTROSE       MOCLDY    72  56  57 S8        30.20R
CORTEZ         CLEAR     70  49  47 E3        30.20R
PAGE, AZ       CLOUDY    77  52  41 SE8       30.09R
GRAND CANYON   MOCLDY    59  54  83 CALM      30.31R HAZE
KINGMAN        CLOUDY    85  51  31 SE17      30.02R
FLAGSTAFF      CLOUDY    57  54  89 W6        30.35F

$$

REGIONAL REPORTS    NEVADA/IDAHO/WYOMING

CITY           SKY/WX    TMP DP  RH WIND       PRES   REMARKS
LAS VEGAS, NV  MOCLDY   101  40  12 SW14      29.81R HX  96
ELY            MOCLDY    62  47  57 W6        30.29F
ELKO           CLOUDY    68  48  48 SE13G20   30.19F
POCATELLO, ID  LGT RAIN  71  53  52 S6        30.14R
BURLEY         CLOUDY    70  50  49 SW6       30.12R
EVANSTON, WY   PTCLDY    66  41  40 NE6       30.32R
ROCK SPRINGS   CLEAR     69  27  20 E9        30.30R

$$


USA.gov is the U.S. government's official web portal to all federal, state and local government web resources and services.